Location: Igon
(43.1667°N, 0.2333°W)
Time: 15:23:33
(UTC+00:00)

deb Chang Zheng 4 - Pass Details

Date: 29 November 2020
Orbit: 601 x 623 km, 98.6° (Epoch: 23 January)

Event Time Altitude Azimuth Distance (km) Brightness Sun altitude
Rises 05:27:12 0° 7° (N) 2,909 7.0 -18.5°
Reaches altitude 10° 05:29:27 10° 1° (N) 2,001 6.0 -18.1°
Maximum altitude 05:33:35 45° 290° (WNW) 857 3.8 -17.3°
Drops below altitude 10° 05:37:44 10° 217° (SW) 1,993 5.9 -16.6°
Sets 05:39:58 0° 211° (SSW) 2,895 6.8 -16.2°
